Regional Weather Roundup
Issued by NWS

Home | Current Version | Previous Version | Graphics & Text | Print | Product List | Glossary On
Versions: 1 2 3 4 5 6 7 8 9 10 11 12 13 14 15 16 17 18 19 20 21 22 23 24 25 26 27
000
ASUS45 KBOI 230610
RWRID
WEATHER ROUNDUP FOR IDAHO
NATIONAL WEATHER SERVICE BOISE ID
1200 AM MDT WED APR 23 2014

NOTE: "FAIR" INDICATES FEW OR NO CLOUDS BELOW 12000 FEET
WITH NO SIGNIFICANT WEATHER AND/OR OBSTRUCTIONS TO VISIBILITY

IDZ012-014-230700-
SOUTHWEST IDAHO


CITY           SKY/WX    TMP DP  RH WIND       PRES   REMARKS
BOISE          PTCLDY    40  32  73 NW5       29.92R
CALDWELL       PTCLDY    37  27  65 NW5       29.95R WCI  34
MOUNTAIN HOME  MOCLDY    39  39  99 W12       29.91R WCI  32
$$

IDZ016-017-230700-
SOUTHCENTRAL IDAHO


CITY           SKY/WX    TMP DP  RH WIND       PRES   REMARKS
BURLEY         MOCLDY    37  34  89 SW21G33   29.83R WCI  26
JEROME         PTCLDY    37  34  89 SW18      29.86R WCI  27
TWIN FALLS     MOCLDY    39  33  79 SW22      29.87R WCI  29
$$

IDZ019>023-230700-
SOUTHEAST IDAHO


CITY           SKY/WX    TMP DP  RH WIND       PRES   REMARKS
IDAHO FALLS    CLOUDY    40  37  89 S21G29    29.74R WCI  30
POCATELLO      CLOUDY    39  35  86 SW25G33   29.80R WCI  28
REXBURG        CLOUDY    38  36  92 SW21G31   29.72R WCI  28
$$

IDZ006-010-011-018-031-032-230700-
CENTRAL IDAHO MOUNTAINS


CITY           SKY/WX    TMP DP  RH WIND       PRES   REMARKS
MCCALL         PTCLDY    28  26  92 CALM      29.85R
HAILEY         PTCLDY    34  32  93 N3        29.75R
STANLEY          N/A     29  23  78 NW3       29.80R
SALMON         CLOUDY    39  25  56 N10G16    29.76R WCI  32
CHALLIS        CLOUDY    37  31  78 N7        29.74R WCI  32
$$

IDZ002-004-006-007-026-230700-
NORTHERN IDAHO


CITY           SKY/WX    TMP DP  RH WIND       PRES   REMARKS
LEWISTON       CLOUDY    46  28  49 VRB3      29.88R
LOWELL         NOT AVBL
COEUR D`ALENE  PTCLDY    36  30  80 SW3       29.80R
MULLAN PASS    CLOUDY    26  23  88 SW9G26    29.73R WCI  17
$$



USA.gov is the U.S. government's official web portal to all federal, state and local government web resources and services.